#timestamp,LO_Frequency,Hit,StdDev 
1584828015.3,286046998.4,N
1584828035.2,286046999.4,N
1584828055.9,286047000.5,N
1584828075.7,286047000.2,N
1584828095.6,286047000.3,N
1584828115.4,286047000.0,N
1584828135.2,286047000.5,N
1584828155.1,286047000.4,N
1584828156.0,286047000.4,N
1584828175.8,286047000.5,N
1584828195.7,286047000.6,N
1584828215.5,286047002.2,N
1584828235.3,286047002.4,N
1584828255.2,286046999.9,N
1584828275.0,286046998.8,N
1584828275.9,286046998.8,N
1584828295.8,286046994.9,Y
1584828315.6,286046996.5,P
1584828335.4,286046999.4,N
1584828355.3,286046997.7,N
1584828375.1,286046999.4,N
1584828395.8,286046998.2,N
1584828415.7,286047001.2,N
1584828435.5,286046996.6,N
1584828455.4,286046997.0,N
1584828475.2,286046998.6,N
1584828495.0,286047000.3,N
1584828495.9,286047000.3,N
1584828515.8,286047000.0,N
1584828535.6,286046999.8,N
1584828555.5,286047002.7,N
1584828575.3,286046999.7,N
1584828595.1,286047002.3,N
1584828615.9,286047002.1,N
1584828635.7,286047002.7,N
1584828655.5,286047000.3,N
1584828675.4,286047002.2,N
1584828695.2,286047000.3,N
1584828715.1,286047001.7,N
1584828716.0,286047001.7,N
1584828735.8,286046998.2,N
1584828755.6,286047001.2,N
1584828775.5,286047000.7,N
1584828795.3,286047002.5,N
1584828815.1,286046999.8,N
1584828835.9,286046999.4,N
1584828855.7,286047001.0,N
1584828875.6,286047000.0,N
1584828895.4,286047001.8,N
1584828915.2,286047001.4,N
1584828935.1,286047001.5,N
1584828936.0,286047001.5,N
1584828955.8,286047003.9,N
1584828975.7,286047001.4,N
1584828995.5,286046999.7,N
1584829015.3,286046998.5,N
1584829035.2,286046998.1,N
1584829055.0,286047000.8,N
1584829055.9,286047000.8,N
1584829075.7,286047000.1,N
1584829095.6,286046998.3,N
1584829115.4,286047001.0,N
1584829135.3,286046998.6,N
1584829155.1,286046999.6,N
1584829175.9,286046999.3,N
1584829195.7,286046999.6,N
1584829215.5,286046996.8,N
1584829235.4,286046995.1,Y
1584829255.2,286046994.0,P
1584829275.0,286046994.6,N
1584829275.9,286046994.6,N
1584829295.8,286046993.4,N
1584829315.6,286046993.3,N
1584829335.5,286046993.4,N
1584829355.3,286046993.5,N
1584829375.1,286046996.4,N
1584829395.9,286046994.1,N
1584829415.7,286046991.9,Y
1584829435.6,286046997.4,P
1584829455.4,286046997.7,N
1584829475.2,286046996.8,N
1584829495.1,286046997.5,N
1584829496.0,286046997.5,N
1584829515.8,286046996.7,Y
1584829535.6,286047000.6,P
1584829555.5,286047000.8,N
1584829575.3,286046998.4,N
1584829595.2,286046997.3,N
1584829615.9,286047001.2,N
1584829635.7,286047000.0,N
1584829655.6,286046998.2,N
1584829675.4,286046999.0,N
1584829695.3,286046998.8,N
1584829715.1,286046997.0,N
1584829716.0,286046997.0,N
1584829735.8,286046997.6,N
1584829755.7,286046995.6,N
1584829775.5,286046993.7,Y
1584829795.4,286046995.1,P
1584829815.2,286046997.6,N
1584829835.0,286046997.8,N
1584829835.9,286046997.8,N
1584829855.8,286046999.4,N
1584829875.6,286046998.8,N
1584829895.4,286046998.1,N
1584829915.3,286047000.9,N
1584829935.1,286047001.2,N
1584829955.9,286047000.0,N
1584829975.7,286046998.1,N
1584829995.5,286047000.7,N
1584830015.4,286046998.7,N
1584830035.2,286047000.5,N
1584830055.0,286047000.0,N
1584830055.9,286047000.0,N
1584830075.8,286046999.7,N
1584830095.6,286047001.8,N
1584830115.5,286047000.2,N
1584830135.3,286047002.3,N
1584830155.1,286047001.6,N
1584830175.9,286047002.0,N
1584830195.7,286047001.6,N
1584830215.6,286047001.3,N
1584830235.4,286047003.6,N
1584830255.2,286047005.6,Y
1584830275.1,286047005.4,P
1584830276.0,286047005.4,N
1584830295.8,286047002.9,N
1584830315.7,286047004.9,N
1584830335.5,286047007.0,Y
1584830355.3,286047005.7,P
1584830375.2,286046999.7,N
1584830395.0,286046999.2,N
1584830395.9,286046999.2,N
1584830415.8,286047001.2,N
1584830435.6,286046997.7,N
1584830455.4,286047011.9,Y
1584830475.3,286046999.2,P
1584830495.1,286047000.4,N
1584830515.8,286046999.9,N
1584830535.7,286047000.2,N
1584830555.5,286047001.0,N
1584830575.4,286047000.7,N
1584830595.2,286047000.2,N
1584830615.0,286046998.7,N
1584830615.9,286046998.7,N
1584830635.8,286047000.4,N
1584830655.6,286047001.6,N
1584830675.5,286047000.5,N
1584830695.3,286047002.6,Y
1584830715.1,286046998.6,P
1584830735.9,286046998.1,N
1584830755.7,286046999.4,N
1584830775.5,286046998.3,N
1584830795.4,286046998.1,N
1584830815.2,286047000.8,N
1584830835.1,286046999.6,N
1584830836.0,286046999.6,N
1584830855.8,286047000.8,N
1584830875.6,286047001.9,N
1584830895.5,286047005.9,Y
1584830915.3,286047005.6,P
1584830935.2,286047001.7,N
1584830955.9,286047002.9,N
1584830975.7,286047005.3,N
1584830995.6,286047004.7,N
1584831015.4,286047005.7,N
1584831035.2,286047003.0,N
1584831055.1,286047005.8,N
1584831056.0,286047005.8,N
1584831075.8,286047004.2,N
1584831095.7,286047002.7,N
1584831115.5,286047002.1,N
1584831135.3,286047004.4,N
1584831155.2,286047002.5,N
1584831175.0,286047006.0,Y
1584831175.9,286047006.0,P
1584831195.8,286047000.3,N
1584831215.6,286047000.9,N
1584831235.4,286047002.3,N
1584831255.3,286047003.3,N
1584831275.1,286047003.9,N
1584831295.8,286047002.0,N
1584831315.7,286047000.5,N
1584831335.5,286047002.6,N
1584831355.4,286047003.1,N
1584831375.2,286047003.3,N
1584831395.0,286047001.5,N
1584831395.9,286047001.5,N
1584831415.8,286047004.6,Y
1584831435.6,286047002.5,P
1584831455.5,286047001.1,P
1584831475.3,286047000.2,N
1584831495.1,286047002.7,N
1584831515.9,286047002.6,N
1584831535.7,286047000.6,N
1584831555.5,286047001.2,N
1584831575.4,286047002.8,N
1584831595.2,286047000.1,N
